Regional Weather Roundup
Issued by NWS Cleveland, OH

Home | Current Version | Previous Version | Graphics & Text | Print | Product List | Glossary On
Versions: 1 2 3 4 5 6 7 8 9 10 11 12 13 14 15 16 17 18 19 20 21 22 23 24 25 26 27 28 29 30 31 32 33 34 35 36 37 38 39 40 41 42 43 44 45 46 47 48 49 50
000
ASUS41 KCLE 200410
RWRCLE
OHIO REGIONAL WEATHER ROUNDUP
NATIONAL WEATHER SERVICE WILMINGTON, OH
1200 AM EDT SUN AUG 20 2017

NOTE: "FAIR" INDICATES FEW OR NO CLOUDS BELOW 12,000 FEET WITH NO
SIGNIFICANT WEATHER AND/OR OBSTRUCTIONS TO VISIBILITY.

OHZ001>008-015>018-024>027-034-035-043-044-200500-
   NORTHWEST OHIO

CITY           SKY/WX    TMP DP  RH WIND       PRES   REMARKS
DEFIANCE       FAIR      63  60  90 CALM      30.02R
FINDLAY        FAIR      66  60  81 S5        30.01R
TOLEDO EXPRESS FAIR      62  62 100 S5        30.01R
TOLEDO EXEC    FAIR      67  61  81 CALM      30.02R
LIMA           FAIR      60  60 100 CALM      30.02S
$$

OHZ009>014-019>023-028>033-038-089-200500-
   NORTHEAST OHIO

CITY           SKY/WX    TMP DP  RH WIND       PRES   REMARKS
CLE-HOPKINS    FAIR      67  62  84 S6        30.04R
CLE-LAKEFRONT  FAIR      70  59  68 S6        30.01R
CUY CO. ARPT   NOT AVBL
LORAIN-ELYRIA    N/A    N/A N/A N/A MISG      30.03R
ASHTABULA      FAIR      59  59 100 CALM      30.03R
AKRON-CANTON   FAIR      66  58  75 CALM      30.04R
WOOSTER        FAIR      59  59 100 CALM      30.05R
MANSFIELD      FAIR      63  61  93 S3        30.05R
YOUNGSTOWN     FAIR      61  59  93 CALM      30.04R
$$

OHZ042-051>053-060>062-070>072-077>081-200500-
  SOUTHWEST OHIO

CITY           SKY/WX    TMP DP  RH WIND       PRES   REMARKS
CINC-COVINGTON FAIR      70  69  97 CALM      30.01R
CINC-LUNKEN    FAIR      70  69  97 CALM      30.01R
HAMILTON       FAIR      69  68  96 CALM      30.02R
DAYTON         FAIR      68  60  75 SE6       30.05R
WRIGHT-PAT AFB CLEAR     69  64  84 CALM      30.03R
DAYTON GENERAL FAIR      71  64  78 NE3       30.02R
WILMINGTON     FAIR      66  66 100 NE3       30.03R
$$

OHZ036-037-039>041-045>050-054>059-063>069-073>076-082>088-200500-
  CENTRAL AND SOUTHEAST OHIO

CITY           SKY/WX    TMP DP  RH WIND       PRES   REMARKS
COLUMBUS       FAIR      70  67  90 CALM      30.02R
OSU AIRPORT    FAIR      67  62  84 CALM      30.03R
BOLTON FIELD   FAIR      64  63  98 CALM      30.04R
RICKENBACK AFB FAIR      67  66  96 CALM      30.02R
NEWARK         FOG       63  62  97 CALM      30.03R VSB 1/2
MARION         FAIR      64  58  80 CALM      30.04R
LANCASTER      FAIR      64  64 100 CALM      30.03R FOG
ZANESVILLE     FAIR      64  62  93 CALM      30.04R FOG
NEW PHILLY     FOG       63  63 100 CALM      30.04R VSB 1/4
$$



USA.gov is the U.S. government's official web portal to all federal, state and local government web resources and services.